Flag for Cuba Weather past 2 weeks in Santiago de Cuba, Cuba

Now
72 °F

Passing clouds.


Feels Like: 72 °F
Forecast: 69 / 86 °F
Wind: 5 mph from North

Location: Santiago De Cuba - Oriente

Current Time: Dec 19, 2014 at 10:30:57 PM

Latest Report: Dec 19, 2014 at 9:51 PM


Visibility: 6 mi

Pressure: 30.01 "Hg

Humidity: 78%

Dew point: 64 °F

Location of Santiago de CubaLocation

Historic Weather in Santiago de Cuba — Graph

°F

Santiago de Cuba temperature yesterday

Maximum temperature yesterday: 88 °F (at 11:52 AM)
Minimum temperature yesterday: 70 °F (at 11:51 PM)
Average temperature yesterday: 77 °F

Past Weeks' High & Low Weather Summary

 TemperatureHumidityPressure
High90 °F (Dec 5, 12:51 PM)83% (Dec 6, 2:50 AM)30.09 "Hg (Dec 6, 2:50 AM)
Low68 °F (Dec 10, 6:51 AM)35% (Dec 6, 2:50 PM)29.89 "Hg (Dec 7, 1:51 PM)
Average77 °F66%29.99 "Hg
* Reported Dec 4 8:50 PM — Dec 19 8:50 PM, Santiago de Cuba, Weather by CustomWeather, © 2014

Note: Actual official high and low records may vary slightly from our data, if they occured in-between our weather recording intervals... More about our weather records

Advertising

Santiago de Cuba weather history for previous 24 hours

 ConditionsComfort  
Time TempWeatherWind HumidityBarometerVisibility
8:50 PM
Dec 19
73 °FPassing clouds.5 mph74%30.01 "Hg6 mi
7:50 PM75 °FPassing clouds.5 mph74%30.01 "Hg6 mi
6:51 PM79 °FPassing clouds.9 mph65%29.98 "Hg6 mi
5:50 PM79 °FPassing clouds.14 mph70%29.98 "Hg6 mi
4:51 PM81 °FScattered clouds.15 mph66%29.95 "HgN/A
3:51 PM82 °FScattered clouds.14 mph62%29.95 "HgN/A
2:50 PM82 °FScattered clouds.14 mph62%29.95 "HgN/A
1:51 PM82 °FScattered clouds.6 mph51%29.95 "HgN/A
12:52 PM82 °FScattered clouds.7 mph48%29.98 "HgN/A
11:51 AM82 °FScattered clouds.7 mph45%30.01 "HgN/A
10:50 AM84 °FPassing clouds.3 mph40%30.04 "HgN/A
9:50 AM82 °FPassing clouds.12 mph45%30.04 "HgN/A
8:53 AM77 °FPassing clouds.12 mph54%30.04 "HgN/A
7:51 AM73 °FPassing clouds.9 mph61%30.04 "HgN/A
6:50 AM68 °FPassing clouds.7 mph73%30.01 "HgN/A
5:52 AM68 °FPassing clouds.8 mph78%29.98 "Hg6 mi
4:51 AM68 °FPassing clouds.7 mph83%29.98 "Hg6 mi
3:52 AM68 °FPassing clouds.6 mph83%29.98 "Hg6 mi
2:51 AM70 °FPassing clouds.9 mph78%30.01 "Hg6 mi
1:51 AM70 °FPassing clouds.7 mph78%30.01 "Hg6 mi
12:51 AM70 °FPassing clouds.7 mph78%30.01 "Hg6 mi
11:51 PM
Dec 18
70 °FPassing clouds.6 mph78%30.04 "Hg6 mi
10:51 PM72 °FPassing clouds.7 mph78%30.04 "Hg6 mi
Weather by CustomWeather, © 2014

See weather overviewHow to use our weather pages